| time (UTC) | temp F | wind direction | speed knots | gust knots | rain 1hr in | rain 24hr in | rain mn in | humidity % | barometer mb |
| 20260507151811 | 73 | 170 | 6.1 | 0.0 | 0.00 | 0.00 | 0.00 | 44 | 1013.0 |
| 20260507150311 | 73 | 170 | 6.1 | 0.0 | 0.00 | 0.00 | 0.00 | 44 | 1013.0 |
| 20260507144811 | 72 | 160 | 7.0 | 0.0 | 0.00 | 0.00 | 0.00 | 47 | 1013.0 |
| 20260507143313 | 72 | 160 | 7.0 | 0.0 | 0.00 | 0.00 | 0.00 | 47 | 1013.0 |
| 20260507141811 | 73 | 1.7 | 0.0 | 0.00 | 0.00 | 0.00 | 44 | 1014.0 | |
| 20260507140311 | 73 | 1.7 | 0.0 | 0.00 | 0.00 | 0.00 | 44 | 1014.0 | |
| 20260507134811 | 72 | 1.7 | 0.0 | 0.00 | 0.00 | 0.00 | 50 | 1014.0 | |
| 20260507133311 | 72 | 1.7 | 0.0 | 0.00 | 0.00 | 0.00 | 50 | 1014.0 | |
| 20260507131808 | 73 | 1.7 | 0.0 | 0.00 | 0.00 | 0.00 | 44 | 1014.0 | |
| 20260507130311 | 73 | 1.7 | 0.0 | 0.00 | 0.00 | 0.00 | 47 | 1014.0 | |
| 20260507124811 | 73 | 300 | 7.0 | 0.0 | 0.00 | 0.00 | 0.00 | 47 | 1014.0 |
| 20260507123349 | 73 | 300 | 7.0 | 0.0 | 0.00 | 0.00 | 0.00 | 47 | 1014.0 |
| 20260507121811 | 72 | 290 | 8.7 | 0.0 | 0.00 | 0.00 | 0.00 | 47 | 1015.0 |
| 20260507120311 | 72 | 290 | 8.7 | 0.0 | 0.00 | 0.00 | 0.00 | 47 | 1015.0 |
| 20260507114811 | 72 | 280 | 9.6 | 0.0 | 0.00 | 0.00 | 0.00 | 44 | 1014.0 |
| 20260507113326 | 73 | 270 | 7.8 | 0.0 | 0.00 | 0.00 | 0.00 | 47 | 1014.0 |
| 20260507111811 | 73 | 270 | 7.8 | 0.0 | 0.00 | 0.00 | 0.00 | 47 | 1014.0 |
| 20260507110311 | 73 | 270 | 7.8 | 0.0 | 0.00 | 0.00 | 0.00 | 47 | 1014.0 |
| 20260507104810 | 75 | 300 | 7.8 | 0.0 | 0.00 | 0.00 | 0.00 | 44 | 1014.0 |
| 20260507103311 | 75 | 300 | 7.8 | 0.0 | 0.00 | 0.00 | 0.00 | 44 | 1014.0 |
| 20260507101811 | 77 | 310 | 5.2 | 0.0 | 0.00 | 0.00 | 0.00 | 44 | 1014.0 |
| 20260507100311 | 77 | 310 | 5.2 | 0.0 | 0.00 | 0.00 | 0.00 | 44 | 1014.0 |
| 20260507094811 | 75 | 310 | 8.7 | 0.0 | 0.00 | 0.00 | 0.00 | 44 | 1014.0 |
| 20260507093311 | 75 | 310 | 8.7 | 0.0 | 0.00 | 0.00 | 0.00 | 44 | 1014.0 |
| 20260507091812 | 75 | 300 | 4.3 | 0.0 | 0.00 | 0.00 | 0.00 | 41 | 1014.0 |
| 20260507090311 | 75 | 300 | 4.3 | 0.0 | 0.00 | 0.00 | 0.00 | 41 | 1014.0 |
| 20260507084811 | 72 | 250 | 5.2 | 0.0 | 0.00 | 0.00 | 0.00 | 50 | 1014.0 |
| 20260507083311 | 72 | 250 | 5.2 | 0.0 | 0.00 | 0.00 | 0.00 | 50 | 1014.0 |
| 20260507081811 | 70 | 250 | 7.0 | 0.0 | 0.00 | 0.00 | 0.00 | 60 | 1014.0 |
| 20260507080312 | 70 | 250 | 7.0 | 0.0 | 0.00 | 0.00 | 0.00 | 60 | 1014.0 |
| 20260507074811 | 70 | 280 | 2.6 | 0.0 | 0.00 | 0.00 | 0.00 | 57 | 1014.0 |
| 20260507073311 | 70 | 280 | 2.6 | 0.0 | 0.00 | 0.00 | 0.00 | 57 | 1014.0 |
| 20260507071811 | 70 | 270 | 4.3 | 0.0 | 0.00 | 0.00 | 0.00 | 57 | 1014.0 |
| 20260507070311 | 70 | 230 | 2.6 | 0.0 | 0.00 | 0.00 | 0.00 | 57 | 1014.0 |
| 20260507064811 | 68 | 230 | 2.6 | 0.0 | 0.00 | 0.00 | 0.00 | 60 | 1014.0 |
| 20260507063311 | 68 | 230 | 2.6 | 0.0 | 0.00 | 0.00 | 0.00 | 60 | 1014.0 |
| 20260507061823 | 66 | 140 | 2.6 | 0.0 | 0.00 | 0.00 | 0.00 | 56 | 1014.0 |
| 20260507060311 | 66 | 140 | 2.6 | 0.0 | 0.00 | 0.00 | 0.00 | 56 | 1014.0 |
| 20260507054811 | 64 | 0.9 | 0.0 | 0.00 | 0.00 | 0.00 | 60 | 1014.0 | |
| 20260507053318 | 64 | 0.9 | 0.0 | 0.00 | 0.00 | 0.00 | 60 | 1014.0 | |
| 20260507051811 | 57 | 1.7 | 0.0 | 0.00 | 0.00 | 0.00 | 77 | 1014.0 | |
| 20260507050311 | 57 | 1.7 | 0.0 | 0.00 | 0.00 | 0.00 | 77 | 1014.0 | |
| 20260507044811 | 55 | 1.7 | 0.0 | 0.00 | 0.00 | 0.00 | 88 | 1014.0 | |
| 20260507043311 | 55 | 1.7 | 0.0 | 0.00 | 0.00 | 0.00 | 88 | 1014.0 | |
| 20260507041811 | 52 | 230 | 2.6 | 0.0 | 0.00 | 0.00 | 0.00 | 82 | 1014.0 |
| 20260507040311 | 52 | 230 | 2.6 | 0.0 | 0.00 | 0.00 | 0.00 | 82 | 1014.0 |
| 20260507034811 | 48 | 240 | 2.6 | 0.0 | 0.00 | 0.00 | 0.00 | 87 | 1014.0 |
| 20260507033310 | 48 | 240 | 2.6 | 0.0 | 0.00 | 0.00 | 0.00 | 87 | 1014.0 |
| 20260507031811 | 50 | 0.9 | 0.0 | 0.00 | 0.00 | 0.00 | 82 | 1014.0 | |
| 20260507030311 | 50 | 0.9 | 0.0 | 0.00 | 0.00 | 0.00 | 82 | 1014.0 | |
| 20260507024811 | 59 | 100 | 4.3 | 0.0 | 0.00 | 0.00 | 0.00 | 63 | 1014.0 |
| 20260507023311 | 59 | 100 | 4.3 | 0.0 | 0.00 | 0.00 | 0.00 | 63 | 1014.0 |
| 20260507021811 | 55 | 70 | 0.9 | 0.0 | 0.00 | 0.00 | 0.00 | 72 | 1014.0 |
| 20260507020311 | 55 | 70 | 0.9 | 0.0 | 0.00 | 0.00 | 0.00 | 72 | 1014.0 |
| 20260507014811 | 61 | 90 | 4.3 | 0.0 | 0.00 | 0.00 | 0.00 | 59 | 1014.0 |
| 20260507013310 | 61 | 90 | 4.3 | 0.0 | 0.00 | 0.00 | 0.00 | 59 | 1014.0 |
| 20260507011811 | 61 | 120 | 7.0 | 0.0 | 0.00 | 0.00 | 0.00 | 59 | 1013.0 |
| 20260507010311 | 61 | 120 | 7.0 | 0.0 | 0.00 | 0.00 | 0.00 | 59 | 1013.0 |
| 20260507004810 | 66 | 160 | 7.0 | 0.0 | 0.00 | 0.00 | 0.00 | 49 | 1013.0 |
| 20260507003311 | 66 | 160 | 7.0 | 0.0 | 0.00 | 0.00 | 0.00 | 49 | 1013.0 |
| 20260507001811 | 66 | 170 | 7.0 | 0.0 | 0.00 | 0.00 | 0.00 | 49 | 1013.0 |
| 20260507000313 | 66 | 170 | 7.0 | 0.0 | 0.00 | 0.00 | 0.00 | 49 | 1013.0 |
| 20260506234811 | 64 | 190 | 7.0 | 0.0 | 0.00 | 0.00 | 0.00 | 52 | 1014.0 |
| 20260506233311 | 64 | 190 | 7.0 | 0.0 | 0.00 | 0.00 | 0.00 | 52 | 1014.0 |
| 20260506231812 | 64 | 180 | 5.2 | 0.0 | 0.00 | 0.00 | 0.00 | 52 | 1014.0 |
| 20260506230311 | 64 | 180 | 5.2 | 0.0 | 0.00 | 0.00 | 0.00 | 52 | 1014.0 |
| 20260506224810 | 63 | 180 | 6.1 | 0.0 | 0.00 | 0.00 | 0.00 | 56 | 1014.0 |
| 20260506223311 | 63 | 180 | 6.1 | 0.0 | 0.00 | 0.00 | 0.00 | 56 | 1014.0 |
| 20260506221811 | 66 | 180 | 7.0 | 0.0 | 0.00 | 0.00 | 0.00 | 49 | 1014.0 |
| 20260506220310 | 66 | 180 | 7.0 | 0.0 | 0.00 | 0.00 | 0.00 | 49 | 1014.0 |
| 20260506214827 | 68 | 190 | 7.8 | 0.0 | 0.00 | 0.00 | 0.00 | 46 | 1014.0 |
| 20260506213311 | 68 | 190 | 7.8 | 0.0 | 0.00 | 0.00 | 0.00 | 46 | 1014.0 |
| 20260506211811 | 64 | 200 | 6.1 | 0.0 | 0.00 | 0.00 | 0.00 | 49 | 1013.0 |
| 20260506210310 | 64 | 200 | 6.1 | 0.0 | 0.00 | 0.00 | 0.00 | 49 | 1013.0 |
| 20260506204811 | 57 | 240 | 2.6 | 0.0 | 0.00 | 0.00 | 0.00 | 59 | 1013.0 |
| 20260506203311 | 57 | 240 | 2.6 | 0.0 | 0.00 | 0.00 | 0.00 | 59 | 1013.0 |
| 20260506201811 | 61 | 0.9 | 0.0 | 0.00 | 0.00 | 0.00 | 52 | 1013.0 | |
| 20260506200311 | 61 | 0.9 | 0.0 | 0.00 | 0.00 | 0.00 | 52 | 1013.0 | |
| 20260506194830 | 63 | 230 | 2.6 | 0.0 | 0.00 | 0.00 | 0.00 | 45 | 1013.0 |
| 20260506193334 | 63 | 230 | 2.6 | 0.0 | 0.00 | 0.00 | 0.00 | 45 | 1013.0 |
| 20260506191812 | 64 | 180 | 4.3 | 0.0 | 0.00 | 0.00 | 0.00 | 43 | 1013.0 |
| 20260506190311 | 64 | 180 | 4.3 | 0.0 | 0.00 | 0.00 | 0.00 | 43 | 1013.0 |
| 20260506184816 | 66 | 250 | 2.6 | 0.0 | 0.00 | 0.00 | 0.00 | 43 | 1013.0 |
| 20260506183311 | 66 | 250 | 2.6 | 0.0 | 0.00 | 0.00 | 0.00 | 43 | 1013.0 |
| 20260506181811 | 66 | 240 | 2.6 | 0.0 | 0.00 | 0.00 | 0.00 | 49 | 1012.0 |
| 20260506180311 | 66 | 240 | 2.6 | 0.0 | 0.00 | 0.00 | 0.00 | 49 | 1012.0 |
| 20260506174811 | 70 | 270 | 4.3 | 0.0 | 0.00 | 0.00 | 0.00 | 46 | 1012.0 |
| 20260506173311 | 70 | 270 | 4.3 | 0.0 | 0.00 | 0.00 | 0.00 | 46 | 1012.0 |
| 20260506171811 | 73 | 230 | 6.1 | 0.0 | 0.00 | 0.00 | 0.00 | 38 | 1011.0 |
| 20260506170311 | 73 | 230 | 6.1 | 0.0 | 0.00 | 0.00 | 0.00 | 38 | 1011.0 |
| 20260506164811 | 77 | 230 | 7.8 | 0.0 | 0.00 | 0.00 | 0.00 | 32 | 1011.0 |
| 20260506163311 | 77 | 230 | 7.8 | 0.0 | 0.00 | 0.00 | 0.00 | 32 | 1011.0 |
| 20260506161811 | 73 | 280 | 6.1 | 0.0 | 0.00 | 0.00 | 0.00 | 44 | 1011.0 |
| 20260506160311 | 73 | 280 | 6.1 | 0.0 | 0.00 | 0.00 | 0.00 | 44 | 1011.0 |
| 20260506154812 | 79 | 1.7 | 0.0 | 0.00 | 0.00 | 0.00 | 28 | 1011.0 | |
| 20260506153311 | 79 | 1.7 | 0.0 | 0.00 | 0.00 | 0.00 | 28 | 1011.0 |